Location: Tierra del Sol
(32.6128°N, 116.3319°W)
Time: 16:59:55
(UTC-07:00)

Vanguard 3 - Visible Passes

Search period start: 18 July 2018 00:00
Search period end: 28 July 2018 00:00
Orbit: 508 x 3264 km, 33.3° (Epoch: 18 July)

Date Brightness Start Highest point End Pass type
(mag) Time Alt. Az. Time Alt. Az. Time Alt. Az.
18 Jul 8.1 20:40:13 10° W 20:51:25 85° N 20:57:29 10° E visible
18 Jul 7.8 22:56:36 10° W 23:02:13 49° W 23:02:13 49° W visible
19 Jul 7.6 21:40:23 10° W 21:49:53 90° SW 21:52:27 36° E visible
19 Jul 9.6 23:56:04 10° W 23:57:01 13° W 23:57:01 13° W visible
20 Jul 8.3 20:23:20 10° W 20:35:35 85° N 20:42:09 10° E visible
20 Jul 7.6 22:40:11 10° W 22:47:15 57° WSW 22:47:15 57° WSW visible
21 Jul 7.8 21:23:40 10° W 21:34:08 85° SSW 21:37:28 30° ESE visible
21 Jul 9.4 23:39:57 10° W 23:42:02 17° W 23:42:02 17° W visible
22 Jul 8.6 20:06:22 10° W 20:19:41 86° N 20:26:47 10° E visible
22 Jul 7.6 22:23:39 10° W 22:32:14 56° SSW 22:32:15 56° SSW visible
23 Jul 8.1 21:06:49 10° W 21:18:18 80° SSW 21:22:27 25° ESE visible
23 Jul 9.3 23:23:46 10° W 23:27:01 20° WSW 23:27:01 20° WSW visible
24 Jul 7.9 22:07:00 10° W 22:16:21 51° SSW 22:17:14 48° S visible
25 Jul 8.3 20:49:53 10° WNW 21:02:22 76° SSW 21:07:27 21° ESE visible
25 Jul 9.3 23:07:31 10° W 23:12:01 21° WSW 23:12:01 21° WSW visible
26 Jul 8.3 21:50:15 10° W 22:00:21 46° SSW 22:02:15 38° S visible
27 Jul 8.6 20:32:50 10° WNW 20:46:19 71° SSW 20:52:29 17° ESE visible
27 Jul 9.4 22:51:13 10° W 22:57:03 21° SW 22:57:03 21° SW visible
